Time,TemperatureF,DewpointF,PressureIn,WindDirection,WindDirectionDegrees,WindSpeedMPH,WindSpeedGustMPH,Humidity,HourlyPrecipIn,Conditions,Clouds,dailyrainin,SolarRadiationWatts/m^2,SoftwareType,DateUTC
2013-03-06 00:02:00,31.0,23.0,-100.00,West,279,8.0,22.0,71,0.00,,,1.26,0.000000,,2013-03-06 06:02:00,
2013-03-06 00:32:00,30.0,25.0,-100.00,WSW,256,8.0,19.0,82,0.00,,,1.26,0.000000,,2013-03-06 06:32:00,
2013-03-06 00:42:00,30.0,25.0,-100.00,WSW,256,8.0,19.0,82,0.00,,,1.26,0.000000,,2013-03-06 06:42:00,
2013-03-06 00:52:00,30.0,25.0,-100.00,WSW,256,8.0,19.0,82,0.00,,,1.26,0.000000,,2013-03-06 06:52:00,
2013-03-06 01:01:00,30.0,25.0,-100.00,WSW,256,8.0,19.0,82,0.00,,,1.26,0.000000,,2013-03-06 07:01:00,
2013-03-06 01:32:00,30.0,26.0,-100.00,WSW,258,9.0,16.0,86,0.00,,,1.26,0.000000,,2013-03-06 07:32:00,
2013-03-06 01:42:00,30.0,26.0,-100.00,WSW,258,9.0,16.0,86,0.00,,,1.26,0.000000,,2013-03-06 07:42:00,
2013-03-06 01:52:00,30.0,26.0,-100.00,WSW,258,9.0,16.0,86,0.00,,,1.26,0.000000,,2013-03-06 07:52:00,
2013-03-06 02:01:00,30.0,26.0,-100.00,WSW,258,9.0,16.0,86,0.00,,,1.26,0.000000,,2013-03-06 08:01:00,
2013-03-06 02:32:00,30.0,26.0,-100.00,West,270,7.0,18.0,85,0.00,,,-99.99,0.000000,,2013-03-06 08:32:00,
2013-03-06 02:42:00,30.0,26.0,-100.00,West,270,7.0,18.0,85,0.00,,,-99.99,0.000000,,2013-03-06 08:42:00,
2013-03-06 02:52:00,30.0,26.0,-100.00,West,270,7.0,18.0,85,0.00,,,-99.99,0.000000,,2013-03-06 08:52:00,
2013-03-06 03:01:00,30.0,26.0,-100.00,West,270,7.0,18.0,85,0.00,,,-99.99,0.000000,,2013-03-06 09:01:00,
2013-03-06 03:32:00,30.0,26.0,-100.00,West,268,9.0,18.0,86,0.00,,,1.06,0.000000,,2013-03-06 09:32:00,
2013-03-06 03:42:00,30.0,26.0,-100.00,West,268,9.0,18.0,86,0.00,,,1.06,0.000000,,2013-03-06 09:42:00,
2013-03-06 03:52:00,30.0,26.0,-100.00,West,268,9.0,18.0,86,0.00,,,1.06,0.000000,,2013-03-06 09:52:00,
2013-03-06 04:01:00,30.0,26.0,-100.00,West,268,9.0,18.0,86,0.00,,,1.06,0.000000,,2013-03-06 10:01:00,
2013-03-06 04:32:00,30.0,26.0,-100.00,West,266,7.0,16.0,84,0.00,,,1.02,0.000000,,2013-03-06 10:32:00,
2013-03-06 04:42:00,30.0,26.0,-100.00,West,266,7.0,16.0,84,0.00,,,1.02,0.000000,,2013-03-06 10:42:00,
2013-03-06 04:52:00,30.0,26.0,-100.00,West,266,7.0,16.0,84,0.00,,,1.02,0.000000,,2013-03-06 10:52:00,
2013-03-06 05:02:00,30.0,26.0,-100.00,West,266,7.0,16.0,84,0.00,,,1.02,0.000000,,2013-03-06 11:02:00,
2013-03-06 05:32:00,31.0,25.0,-100.00,West,281,9.0,21.0,77,0.00,,,0.92,0.000000,,2013-03-06 11:32:00,
2013-03-06 05:43:00,31.0,25.0,-100.00,West,281,9.0,21.0,77,0.00,,,0.92,0.000000,,2013-03-06 11:43:00,
2013-03-06 05:52:00,31.0,25.0,-100.00,West,281,9.0,21.0,77,0.00,,,0.92,0.000000,,2013-03-06 11:52:00,
2013-03-06 06:02:00,31.0,25.0,-100.00,West,281,9.0,21.0,77,0.00,,,0.92,0.000000,,2013-03-06 12:02:00,
2013-03-06 06:33:00,31.0,25.0,-100.00,WNW,301,10.0,21.0,77,0.00,,,0.90,0.000000,,2013-03-06 12:33:00,
2013-03-06 06:43:00,31.0,25.0,-100.00,WNW,301,10.0,21.0,77,0.00,,,0.90,0.000000,,2013-03-06 12:43:00,
2013-03-06 06:52:00,31.0,25.0,-100.00,WNW,301,10.0,21.0,77,0.00,,,0.90,0.000000,,2013-03-06 12:52:00,
2013-03-06 07:02:00,31.0,25.0,-100.00,WNW,301,10.0,21.0,77,0.00,,,0.90,0.000000,,2013-03-06 13:02:00,
2013-03-06 07:32:00,31.0,25.0,-100.00,WNW,302,8.0,22.0,78,0.00,,,0.89,4.000000,,2013-03-06 13:32:00,
2013-03-06 07:42:00,31.0,25.0,-100.00,WNW,302,8.0,22.0,78,0.00,,,0.89,4.000000,,2013-03-06 13:42:00,
2013-03-06 07:52:00,31.0,25.0,-100.00,WNW,302,8.0,22.0,78,0.00,,,0.89,4.000000,,2013-03-06 13:52:00,
2013-03-06 08:01:00,31.0,25.0,-100.00,WNW,302,8.0,22.0,78,0.00,,,0.89,4.000000,,2013-03-06 14:01:00,
2013-03-06 08:32:00,31.0,26.0,-100.00,WNW,302,7.0,19.0,82,0.00,,,0.88,13.000000,,2013-03-06 14:32:00,
2013-03-06 08:42:00,31.0,26.0,-100.00,WNW,302,7.0,19.0,82,0.00,,,0.88,13.000000,,2013-03-06 14:42:00,
2013-03-06 08:52:00,31.0,26.0,-100.00,WNW,302,7.0,19.0,82,0.00,,,0.88,13.000000,,2013-03-06 14:52:00,
2013-03-06 09:02:00,31.0,26.0,-100.00,WNW,302,7.0,19.0,82,0.00,,,0.88,13.000000,,2013-03-06 15:02:00,
2013-03-06 09:32:00,31.0,27.0,-100.00,NW,311,9.0,17.0,85,0.00,,,0.73,29.000000,,2013-03-06 15:32:00,
2013-03-06 09:42:00,31.0,27.0,-100.00,NW,311,9.0,17.0,85,0.00,,,0.73,29.000000,,2013-03-06 15:42:00,
2013-03-06 09:52:00,31.0,27.0,-100.00,NW,311,9.0,17.0,85,0.00,,,0.73,29.000000,,2013-03-06 15:52:00,
2013-03-06 10:01:00,31.0,27.0,-100.00,NW,311,9.0,17.0,85,0.00,,,0.73,29.000000,,2013-03-06 16:01:00,
2013-03-06 10:32:00,32.0,28.0,-100.00,NW,321,11.0,23.0,86,0.00,,,0.52,74.000000,,2013-03-06 16:32:00,
2013-03-06 10:42:00,32.0,28.0,-100.00,NW,321,11.0,23.0,86,0.00,,,0.52,74.000000,,2013-03-06 16:42:00,
2013-03-06 10:52:00,32.0,28.0,-100.00,NW,321,11.0,23.0,86,0.00,,,0.52,74.000000,,2013-03-06 16:52:00,
2013-03-06 11:01:00,32.0,28.0,-100.00,NW,321,11.0,23.0,86,0.00,,,0.52,74.000000,,2013-03-06 17:01:00,
2013-03-06 11:32:00,33.0,28.0,-100.00,NW,324,8.0,27.0,82,0.01,,,0.33,160.000000,,2013-03-06 17:32:00,
2013-03-06 11:42:00,33.0,28.0,-100.00,NW,324,8.0,27.0,82,0.01,,,0.33,160.000000,,2013-03-06 17:42:00,
2013-03-06 11:53:00,33.0,28.0,-100.00,NW,324,8.0,27.0,82,0.01,,,0.33,160.000000,,2013-03-06 17:53:00,
2013-03-06 12:02:00,33.0,28.0,-100.00,NW,324,8.0,27.0,82,0.01,,,0.33,160.000000,,2013-03-06 18:02:00,
2013-03-06 12:32:00,34.0,28.0,-100.00,NNW,329,11.0,19.0,80,0.00,,,0.22,146.000000,,2013-03-06 18:32:00,
2013-03-06 12:42:00,34.0,28.0,-100.00,NNW,329,11.0,19.0,80,0.00,,,0.22,146.000000,,2013-03-06 18:42:00,
2013-03-06 12:53:00,34.0,28.0,-100.00,NNW,329,11.0,19.0,80,0.00,,,0.22,146.000000,,2013-03-06 18:53:00,
2013-03-06 13:02:00,34.0,28.0,-100.00,NNW,329,11.0,19.0,80,0.00,,,0.22,146.000000,,2013-03-06 19:02:00,
2013-03-06 13:32:00,35.0,29.0,-100.00,NW,318,10.0,22.0,77,0.00,,,0.14,172.000000,,2013-03-06 19:32:00,
2013-03-06 13:43:00,35.0,29.0,-100.00,NW,318,10.0,22.0,77,0.00,,,0.14,172.000000,,2013-03-06 19:43:00,
2013-03-06 13:53:00,35.0,29.0,-100.00,NW,318,10.0,22.0,77,0.00,,,0.14,172.000000,,2013-03-06 19:53:00,
2013-03-06 14:02:00,35.0,29.0,-100.00,NW,318,10.0,22.0,77,0.00,,,0.14,172.000000,,2013-03-06 20:02:00,
2013-03-06 14:33:00,35.0,29.0,-100.00,NNW,337,11.0,23.0,77,0.00,,,0.09,159.000000,,2013-03-06 20:33:00,
2013-03-06 14:43:00,35.0,29.0,-100.00,NNW,337,11.0,23.0,77,0.00,,,0.09,159.000000,,2013-03-06 20:43:00,
2013-03-06 14:53:00,35.0,29.0,-100.00,NNW,337,11.0,23.0,77,0.00,,,0.09,159.000000,,2013-03-06 20:53:00,
2013-03-06 15:02:00,35.0,29.0,-100.00,NNW,337,11.0,23.0,77,0.00,,,0.09,159.000000,,2013-03-06 21:02:00,
2013-03-06 15:33:00,34.0,26.0,-100.00,NNW,332,9.0,20.0,73,0.00,,,0.03,111.000000,,2013-03-06 21:33:00,
2013-03-06 15:42:00,34.0,26.0,-100.00,NNW,332,9.0,20.0,73,0.00,,,0.03,111.000000,,2013-03-06 21:42:00,
2013-03-06 15:52:00,34.0,26.0,-100.00,NNW,332,9.0,20.0,73,0.00,,,0.03,111.000000,,2013-03-06 21:52:00,
2013-03-06 16:01:00,34.0,26.0,-100.00,NNW,332,9.0,20.0,73,0.00,,,0.03,111.000000,,2013-03-06 22:01:00,
2013-03-06 16:32:00,34.0,27.0,-100.00,NNW,337,8.0,17.0,75,0.00,,,0.01,61.000000,,2013-03-06 22:32:00,
2013-03-06 16:42:00,34.0,27.0,-100.00,NNW,337,8.0,17.0,75,0.00,,,0.01,61.000000,,2013-03-06 22:42:00,
2013-03-06 16:52:00,34.0,27.0,-100.00,NNW,337,8.0,17.0,75,0.00,,,0.01,61.000000,,2013-03-06 22:52:00,
2013-03-06 17:01:00,34.0,27.0,-100.00,NNW,337,8.0,17.0,75,0.00,,,0.01,61.000000,,2013-03-06 23:01:00,
2013-03-06 17:32:00,33.0,27.0,-100.00,NW,320,7.0,13.0,77,0.00,,,0.01,24.000000,,2013-03-06 23:32:00,
2013-03-06 17:42:00,33.0,27.0,-100.00,NW,320,7.0,13.0,77,0.00,,,0.01,24.000000,,2013-03-06 23:42:00,
2013-03-06 17:52:00,33.0,27.0,-100.00,NW,320,7.0,13.0,77,0.00,,,0.01,24.000000,,2013-03-06 23:52:00,
2013-03-06 18:01:00,33.0,27.0,-100.00,NW,320,7.0,13.0,77,0.00,,,0.01,24.000000,,2013-03-07 00:01:00,
2013-03-06 18:32:00,32.0,26.0,-100.00,NNW,334,8.0,13.0,78,0.00,,,0.01,3.000000,,2013-03-07 00:32:00,
2013-03-06 18:42:00,32.0,26.0,-100.00,NNW,334,8.0,13.0,78,0.00,,,0.01,3.000000,,2013-03-07 00:42:00,
2013-03-06 18:52:00,32.0,26.0,-100.00,NNW,334,8.0,13.0,78,0.00,,,0.01,3.000000,,2013-03-07 00:52:00,
2013-03-06 19:01:00,32.0,26.0,-100.00,NNW,334,8.0,13.0,78,0.00,,,0.01,3.000000,,2013-03-07 01:01:00,
2013-03-06 19:32:00,32.0,26.0,-100.00,NNW,340,7.0,13.0,79,0.00,,,0.01,0.000000,,2013-03-07 01:32:00,
2013-03-06 19:42:00,32.0,26.0,-100.00,NNW,340,7.0,13.0,79,0.00,,,0.01,0.000000,,2013-03-07 01:42:00,
2013-03-06 19:52:00,32.0,26.0,-100.00,NNW,340,7.0,13.0,79,0.00,,,0.01,0.000000,,2013-03-07 01:52:00,
2013-03-06 20:01:00,32.0,26.0,-100.00,NNW,340,7.0,13.0,79,0.00,,,0.01,0.000000,,2013-03-07 02:01:00,
2013-03-06 20:32:00,31.0,26.0,-100.00,NNW,342,9.0,13.0,80,0.00,,,0.01,0.000000,,2013-03-07 02:32:00,
2013-03-06 20:42:00,31.0,26.0,-100.00,NNW,342,9.0,13.0,80,0.00,,,0.01,0.000000,,2013-03-07 02:42:00,
2013-03-06 20:52:00,31.0,26.0,-100.00,NNW,342,9.0,13.0,80,0.00,,,0.01,0.000000,,2013-03-07 02:52:00,
2013-03-06 21:02:00,31.0,26.0,-100.00,NNW,342,9.0,13.0,80,0.00,,,0.01,0.000000,,2013-03-07 03:02:00,
2013-03-06 21:32:00,31.0,26.0,-100.00,NNW,342,8.0,14.0,82,0.00,,,0.01,0.000000,,2013-03-07 03:32:00,
2013-03-06 21:42:00,31.0,26.0,-100.00,NNW,342,8.0,14.0,82,0.00,,,0.01,0.000000,,2013-03-07 03:42:00,
2013-03-06 21:52:00,31.0,26.0,-100.00,NNW,342,8.0,14.0,82,0.00,,,0.01,0.000000,,2013-03-07 03:52:00,
2013-03-06 22:01:00,31.0,26.0,-100.00,NNW,342,8.0,14.0,82,0.00,,,0.01,0.000000,,2013-03-07 04:01:00,
2013-03-06 22:32:00,31.0,26.0,-100.00,NNW,345,7.0,11.0,83,0.00,,,0.01,0.000000,,2013-03-07 04:32:00,
2013-03-06 22:42:00,31.0,26.0,-100.00,NNW,345,7.0,11.0,83,0.00,,,0.01,0.000000,,2013-03-07 04:42:00,
2013-03-06 22:52:00,31.0,26.0,-100.00,NNW,345,7.0,11.0,83,0.00,,,0.01,0.000000,,2013-03-07 04:52:00,
2013-03-06 23:02:00,31.0,26.0,-100.00,NNW,345,7.0,11.0,83,0.00,,,0.01,0.000000,,2013-03-07 05:02:00,
2013-03-06 23:32:00,31.0,27.0,-100.00,North,7,6.0,11.0,84,0.00,,,0.01,0.000000,,2013-03-07 05:32:00,
2013-03-06 23:42:00,31.0,27.0,-100.00,North,7,6.0,11.0,84,0.00,,,0.01,0.000000,,2013-03-07 05:42:00,
2013-03-06 23:52:00,31.0,27.0,-100.00,North,7,6.0,11.0,84,0.00,,,0.01,0.000000,,2013-03-07 05:52:00,